Probability
0 0 0 0 0 0 0 0 0 0 0 0 0 0 0 0 0 0 0 0 0 0 0 0 0 0 0 0 0 0 0 0 0 0 0 0 0 0 0 0 0 0 0 0
0 0 0 0 0 0 0 0 0 0 0 0 0 0 0 0 0 0 0 0 0 0 0 0 0 0 0 0 0 0 0 0 0 0 0 0 0 0 0 0 0 0 0 0
0 0 0 0 0 0 0 0 0 0 0 0 0 0 0 0 0 0 0 0 0 0 0 0 0 0 0 0 0 0 0 0 0 0 0 0 0 0 0 0 0 0 0 0
0 0 0 0 0 0 0 0 0 0 0 0 0 0 0 0 0 0 0 0 0 0 0 0 0 0 0 0 0 0 0 0 0 0 0 0 0 0 0 0 0 0 0 0
0 0 0 0 0 0 0 0 0 0 0 0 0 0 0 0 0 0 0 0 0 0 0 0 0 0 0 0 0 0 0 0 0 0 0 0 0 0 0 0 0 0 0 0
0 0 0 0 0 0 0 0 0 0 0 0 0 0 0 0 0 0 0 0 0 0 0 0 0 0 0 0 0 0 0 0 0 0 0 0 0 0 0 0 0 0 0 0
0 0 0 0 0 0 0 0 0 0 0 0 0 0 0 0 0 0 0 0 0 0 0 0 0 0 0 0 0 0 0 0 0 0 0 0 0 0 0 0 0 0 0 0
0 0 0 0 0 0 0 0 0 0 0 0 0 0 0 0 0 0 0 0 0 0 0 0 0 0 0 0 0 0 0 0 0 0 0 0 0 0 0 0 0 0 0 0
0 0 0 0 0 0 0 0 0 0 0 0 0 0 0 0 0 0 0 0 0 0 0 0 0 0 0 0 0 0 0 0 0 0 0 0 0 0 0 0 0 0 0 0
0 0 0 0 0 0 0 0 0 0 0 0 0 0 0 0 0 0 0 0 0 0 0 0 0 0 0 0 0 0 0 0 0 0 0 0 0 0 0 0 0 0 0 0
0 0 0 0 0 0 0 0 0 0 0 0 0 0 0 0 0 0 0 0 0 0 0 0 0 0 0 0 0 0 0 0 0 0 0 0 0 0 0 0 0 0 0 0
0 0 0 0 0 0 0 0 0 0 0 0 0 0 0 0 0 0 0 0 0 0 0 0 0 0 0 0 0 0 0 0 0 0 0 0 0 0 0 0 0 0 0 0
0 0 0 0 0 0 0 0 0 0 0 0 0 0 0 0 0 0 0 0 0 0 0 0 0 0 0 0 0 0 0 0 0 0 0 0 0 0 0 0 0 0 0 0
0 0 0 0 0 0 0 0 0 0 0 0 0 0 0 0 0 0 0 0 0 0 0 0 0 0 0 0 0 0 0 0 0 0 0 0 0 0 0 0 0 0 0 0
0 0 0 0 0 0 0 0 0 0 0 0 0 0 0 0 0 0 0 0 0 0 0 0 0 0 0 0 0 0 0 0 0 0 0 0 0 0 0 0 0 0 0 0
0 0 0 0 0 0 0 0 0 0 0 0 0 0 0 0 0 0 0 0 0 0 0 0 0 0 0 0 0 0 0 0 0 0 0 0 0 0 0 0 0 0 0 0
0 0 0 0 0 0 0 0 0 0 0 0 0 0 0 0 0 0 0 0 0 0 0 0 0 0 0 0 0 0 0 0 0 0 0 0 0 0 0 0 0 0 0 0
0 0 0 0 0 0 0 0 0 0 0 0 0 0 0 0 0 0 0 0 0 0 0 0 0 0 0 0 0 0 0 0 0 0 0 0 0 0 0 0 0 0 0 0
0 0 0 0 0 0 0 0 0 0 0 0 0 0 0 0 0 0 0 0 0 0 0 0 0 0 0 0 0 0 0 0 0 0 0 0 0 0 0 0 0 0 0 0
0 0 0 0 0 0 0 0 0 0 0 0 0 0 0 0 0 0 0 0 0 0 0 0 0 0 0 0 0 0 0 0 0 0 0 0 0 0 0 0 0 0 0 0
0 0 0 0 0 0 0 0 0 0 0 0 0 0 0 0 0 0 0 0 0 0 0 0 0 0 0 0 0 0 0 0 0 0 0 0 0 0 0 0 0 0 0 0
0 0 0 0 0 0 0 0 0 0 0 0 0 0 0 0 0 0 0 0 0 0 0 0 0 0 0 0 0 0 0 0 0 0 0 0 0 0 0 0 0 0 0 0
0 0 0 0 0 0 0 0 0 0 0 0 0 0 0 0 0 0 0 0 0 0 0 0 0 0 0 0 0 0 0 0 0 0 0 0 0 0 0 0 0 0 0 0
0 0 0 0 0 0 0 0 0 0 0 0 0 0 0 0 0 0 0 0 0 0 0 0 0 0 0 0 0 0 0 0 0 0 0 0 0 0 0 0 0 0 0 0
0 0 0 0 0 0 0 0 0 0 0 0 0 0 0 0 0 0 0 0 0 0 0 0 0 0 0 0 0 0 0 0 0 0 0 0 0 0 0 0 0 0 0 0
0 0 0 0 0 0 0 0 0 0 0 0 0 0 0 0 0 0 0 0 0 0 0 0 0 0 0 0 0 0 0 0 0 0 0 0 0 0 0 0 0 0 0 0
Height
5811 5813 5815 5815 5812 5813 5813 5814 5815 5815 5813 5812 5812 5813 5813 5813 5812 5811 5811 5810 5810 5809 5808 5807 5806 5805 5804 5803 5802 5801 5800 5799 5797 5795 5794 5792 5790 5788 5787 5785 5783 5781 5780 5778
5803 5805 5807 5805 5805 5805 5805 5805 5806 5806 5804 5803 5803 5804 5805 5805 5804 5804 5803 5803 5802 5802 5801 5800 5799 5798 5797 5795 5794 5793 5791 5790 5788 5786 5784 5782 5780 5778 5776 5774 5772 5770 5768 5766
5794 5796 5796 5797 5797 5796 5796 5797 5796 5795 5795 5794 5795 5796 5797 5797 5795 5795 5795 5794 5794 5793 5792 5791 5790 5789 5787 5786 5784 5783 5781 5780 5778 5776 5774 5771 5769 5767 5764 5762 5760 5758 5755 5753
5783 5786 5787 5787 5787 5787 5787 5788 5787 5786 5786 5785 5786 5786 5789 5789 5787 5787 5786 5786 5785 5784 5783 5781 5780 5779 5777 5775 5773 5771 5770 5768 5766 5764 5762 5760 5757 5755 5752 5749 5747 5744 5742 5740
5774 5776 5776 5777 5778 5778 5777 5778 5778 5777 5776 5776 5777 5776 5779 5779 5779 5778 5777 5776 5775 5774 5772 5770 5769 5767 5765 5763 5761 5759 5757 5755 5754 5752 5749 5747 5744 5741 5738 5735 5733 5730 5727 5725
5764 5765 5766 5767 5768 5768 5768 5768 5768 5767 5767 5767 5770 5767 5767 5767 5768 5767 5766 5765 5763 5762 5760 5759 5756 5754 5751 5749 5747 5745 5743 5741 5739 5737 5735 5732 5729 5726 5723 5720 5717 5714 5711 5708
5753 5754 5755 5757 5757 5758 5759 5759 5758 5757 5757 5758 5759 5757 5758 5757 5756 5755 5754 5752 5750 5748 5747 5744 5742 5739 5737 5734 5732 5730 5728 5726 5723 5721 5718 5716 5713 5710 5707 5703 5700 5697 5694 5690
5742 5745 5746 5747 5748 5748 5748 5748 5749 5749 5747 5747 5746 5746 5748 5747 5745 5743 5742 5740 5737 5735 5733 5730 5727 5724 5721 5719 5717 5714 5712 5709 5706 5704 5701 5698 5695 5692 5689 5686 5682 5679 5675 5672
5732 5734 5736 5737 5738 5738 5737 5737 5739 5737 5735 5735 5735 5735 5735 5733 5732 5730 5729 5727 5725 5722 5719 5716 5712 5709 5706 5704 5701 5698 5695 5691 5689 5686 5683 5680 5677 5673 5670 5666 5663 5659 5655 5652
5721 5723 5724 5725 5726 5726 5727 5727 5726 5725 5724 5723 5724 5724 5724 5721 5719 5719 5717 5715 5712 5709 5705 5701 5698 5694 5691 5688 5684 5681 5677 5674 5671 5667 5664 5660 5657 5653 5650 5646 5642 5638 5635 5631
5709 5711 5713 5714 5714 5716 5716 5715 5714 5713 5711 5711 5711 5715 5709 5709 5708 5706 5704 5701 5698 5694 5690 5686 5682 5679 5675 5671 5667 5664 5660 5656 5653 5649 5645 5642 5638 5634 5630 5626 5621 5617 5613 5609
5696 5697 5698 5700 5701 5701 5701 5703 5702 5701 5699 5697 5695 5701 5697 5697 5695 5692 5689 5686 5681 5677 5673 5670 5666 5663 5659 5654 5650 5646 5642 5638 5634 5630 5626 5622 5618 5613 5608 5604 5600 5595 5590 5585
5683 5683 5684 5685 5687 5688 5689 5689 5688 5686 5684 5680 5680 5687 5684 5683 5679 5677 5674 5669 5665 5661 5657 5654 5650 5646 5641 5636 5632 5628 5623 5619 5614 5610 5606 5601 5597 5592 5587 5582 5576 5571 5566 5560
5668 5668 5671 5673 5673 5673 5674 5675 5674 5670 5667 5666 5668 5672 5670 5666 5663 5660 5656 5651 5648 5645 5641 5638 5633 5628 5623 5618 5613 5609 5604 5599 5594 5590 5585 5580 5575 5570 5564 5559 5553 5547 5541 5535
5652 5653 5655 5656 5657 5657 5659 5661 5659 5654 5653 5652 5654 5655 5656 5649 5646 5642 5639 5635 5631 5629 5625 5621 5616 5610 5605 5600 5595 5589 5584 5579 5574 5569 5564 5559 5554 5548 5542 5536 5530 5523 5517 5510
5636 5637 5639 5639 5641 5640 5642 5646 5643 5641 5640 5637 5637 5639 5641 5632 5627 5624 5621 5617 5615 5612 5607 5603 5598 5593 5588 5582 5576 5571 5565 5559 5554 5549 5543 5537 5532 5525 5519 5513 5506 5499 5493 5487
5622 5622 5623 5623 5624 5621 5624 5633 5630 5627 5625 5623 5620 5623 5619 5614 5611 5608 5604 5600 5597 5593 5589 5584 5580 5575 5570 5564 5558 5552 5546 5540 5534 5528 5522 5515 5508 5502 5496 5490 5484 5478 5472 5467
5608 5608 5606 5605 5605 5602 5615 5618 5614 5610 5610 5607 5603 5602 5599 5595 5592 5590 5586 5583 5579 5574 5571 5567 5562 5557 5552 5546 5539 5533 5527 5520 5513 5506 5499 5493 5486 5481 5475 5470 5464 5459 5454 5450
5593 5593 5590 5589 5585 5586 5596 5599 5597 5592 5590 5590 5585 5582 5578 5574 5573 5574 5569 5564 5560 5557 5553 5548 5543 5538 5533 5527 5519 5513 5506 5499 5492 5485 5478 5472 5466 5461 5457 5452 5447 5442 5438 5433
5577 5577 5576 5572 5569 5569 5582 5582 5577 5571 5568 5574 5566 5562 5559 5557 5556 5558 5550 5546 5543 5538 5534 5529 5524 5519 5513 5506 5499 5492 5486 5479 5472 5465 5459 5454 5449 5445 5440 5436 5431 5426 5422 5417
5562 5560 5559 5557 5552 5553 5561 5561 5557 5552 5551 5550 5547 5545 5543 5541 5539 5537 5532 5529 5524 5519 5514 5509 5503 5499 5493 5486 5478 5472 5466 5460 5453 5447 5443 5438 5434 5430 5425 5421 5415 5410 5406 5401
5545 5544 5544 5541 5536 5542 5543 5538 5536 5531 5527 5527 5527 5526 5525 5524 5521 5518 5514 5509 5505 5500 5495 5489 5483 5478 5473 5466 5459 5453 5448 5442 5437 5432 5427 5423 5419 5414 5410 5405 5400 5394 5389 5384
5528 5530 5529 5527 5527 5524 5520 5518 5514 5510 5509 5508 5508 5508 5507 5505 5503 5499 5495 5491 5486 5481 5475 5469 5462 5458 5454 5448 5441 5436 5431 5426 5422 5417 5413 5408 5404 5399 5395 5390 5384 5378 5372 5367
5512 5513 5512 5511 5510 5504 5499 5495 5493 5491 5491 5491 5491 5490 5488 5485 5483 5480 5476 5472 5467 5462 5456 5449 5443 5439 5435 5430 5424 5420 5415 5411 5406 5402 5398 5393 5389 5384 5379 5374 5369 5363 5357 5351
5498 5497 5496 5493 5492 5484 5478 5476 5474 5473 5474 5475 5474 5471 5469 5465 5463 5460 5457 5453 5448 5443 5438 5431 5426 5421 5418 5413 5409 5405 5400 5396 5391 5387 5382 5378 5373 5369 5364 5358 5353 5347 5341 5335
5485 5484 5479 5475 5471 5463 5461 5460 5458 5457 5458 5457 5455 5453 5451 5447 5444 5441 5438 5435 5430 5426 5421 5416 5411 5406 5402 5398 5394 5389 5385 5381 5376 5371 5367 5362 5357 5353 5348 5343 5338 5331 5326 5320
Wind_Speed
37 36 32 32 35 36 34 34 32 31 34 35 34 32 31 31 31 31 30 30 30 30 31 31 32 32 33 34 34 35 36 37 38 39 39 40 41 42 43 44 46 47 48 49
38 36 34 36 36 37 37 37 36 36 37 37 35 33 31 31 31 30 30 30 30 31 32 33 34 35 36 37 38 39 39 40 41 42 43 44 45 46 46 48 49 50 51 52
40 40 38 39 39 39 39 39 39 39 38 37 36 34 31 30 30 31 31 32 32 34 35 36 37 38 40 41 41 42 42 43 44 45 46 47 48 49 50 51 52 54 55 56
43 42 41 41 41 41 40 39 39 39 38 37 37 36 31 30 32 33 34 35 36 37 39 40 41 41 42 43 44 45 45 45 46 47 48 50 51 52 53 54 55 57 58 60
45 44 43 42 40 40 40 38 38 39 39 39 37 37 36 34 34 35 36 38 39 40 41 42 43 44 45 46 47 47 48 48 49 49 50 52 53 55 56 57 58 60 61 63
44 44 42 40 39 39 39 38 39 39 39 40 37 39 41 40 39 39 40 41 42 43 44 45 46 48 49 49 50 50 51 51 52 52 53 55 56 57 59 60 61 63 64 66
42 41 40 39 38 38 38 38 40 41 41 41 41 43 44 44 44 44 44 45 45 46 47 48 50 51 52 53 54 55 55 56 57 57 58 59 60 61 62 63 65 66 68 70
40 39 38 37 37 38 40 40 41 42 44 44 45 47 47 47 47 47 47 47 48 49 50 52 54 55 56 58 59 60 61 61 62 63 63 64 64 65 65 66 67 69 71 73
39 39 39 39 39 41 42 42 42 45 47 48 50 50 50 50 49 49 49 50 50 51 52 55 57 59 60 61 63 64 65 66 67 68 68 69 69 69 70 70 71 73 74 76
41 42 41 41 42 44 44 44 45 47 49 52 53 53 54 53 52 51 51 51 52 53 56 58 60 62 64 65 66 68 69 70 71 72 72 73 73 73 74 74 75 76 77 78
44 45 45 45 45 45 46 48 49 50 53 54 55 56 57 56 54 53 52 53 54 56 59 62 64 65 67 68 70 71 72 73 74 75 76 76 77 77 78 78 78 79 80 80
47 49 50 50 50 50 51 50 50 52 53 54 58 60 59 56 54 53 54 56 58 61 63 65 66 67 69 71 72 74 75 76 77 78 78 79 79 79 80 80 80 81 82 83
51 53 54 55 56 54 52 51 51 52 55 58 60 60 57 54 54 54 56 59 62 64 66 67 69 71 72 74 75 76 77 78 79 79 79 80 80 80 81 81 83 84 85 86
56 58 59 59 57 56 56 55 55 56 59 59 59 56 54 55 55 58 61 64 66 67 69 70 72 73 75 76 76 77 78 78 79 79 80 80 81 82 83 84 85 86 87 88
61 62 62 61 60 61 60 59 59 60 60 60 58 56 54 56 58 61 64 67 68 69 70 72 73 74 75 76 76 77 77 78 79 80 80 81 82 83 84 85 86 87 87 87
62 64 64 64 63 62 61 62 63 61 60 59 59 58 56 59 63 64 66 68 69 70 71 72 73 73 74 75 75 76 77 78 79 80 81 82 83 84 84 84 84 82 79 77
63 64 64 64 62 62 66 63 61 60 60 60 61 59 59 62 64 66 68 69 69 70 71 72 72 73 73 74 75 76 77 79 80 81 82 83 83 82 81 79 76 72 69 66
63 64 63 63 63 67 66 62 62 62 61 61 62 61 63 65 67 68 68 69 69 70 71 71 71 72 73 74 76 77 79 80 81 81 81 81 79 76 73 69 66 63 61 61
64 63 64 64 66 69 66 65 63 63 64 63 64 64 65 68 69 68 68 69 70 70 70 71 72 73 74 75 77 78 79 80 79 78 77 75 72 68 65 62 60 59 60 61
64 64 64 66 67 70 67 65 65 66 69 65 65 66 68 69 69 67 69 70 70 70 71 72 73 74 75 77 78 78 77 76 75 73 71 67 64 61 59 58 58 59 60 61
63 63 64 65 67 69 68 67 65 67 68 67 67 68 67 67 68 68 69 70 71 71 72 74 75 76 76 77 76 75 73 70 68 66 64 61 59 58 58 58 59 60 61 62
64 64 65 65 67 68 65 65 65 66 67 67 66 66 67 67 68 69 70 71 72 73 74 75 75 75 74 72 70 68 65 63 62 60 59 58 58 57 57 58 59 61 62 63
64 64 64 65 66 65 65 64 64 64 65 66 66 66 66 67 68 69 71 72 73 73 73 73 73 71 69 66 64 62 60 58 58 57 57 57 57 58 58 59 60 61 62 63
63 62 63 63 63 62 63 63 63 64 65 65 65 65 67 68 69 70 71 71 71 70 69 68 67 65 62 60 58 57 56 56 57 57 57 58 58 59 59 60 61 62 62 62
59 59 61 60 58 59 61 62 64 65 65 65 65 67 68 69 69 69 69 67 66 64 63 61 60 58 56 55 55 55 56 57 57 58 59 59 59 59 60 60 61 61 61 61
55 55 55 56 57 61 63 63 64 64 64 65 66 67 68 68 67 66 64 62 60 58 56 55 54 53 53 53 54 55 56 57 58 59 60 60 60 60 60 60 60 60 60 59
Wind_Direction
270 271 274 273 271 274 276 277 278 277 275 275 276 276 276 278 280 281 283 283 284 284 285 287 288 288 287 287 287 287 286 286 285 283 282 281 279 278 276 275 274 272 271 270
269 270 270 269 271 274 275 276 277 275 274 275 276 276 277 278 279 280 281 282 283 284 284 285 285 285 286 286 286 285 285 285 284 283 282 280 279 277 276 275 273 272 271 270
268 269 269 270 271 272 273 274 274 274 274 275 277 278 279 280 281 283 284 284 285 285 286 286 286 286 286 286 286 285 284 283 282 281 280 280 279 277 275 274 274 273 271 270
266 268 269 270 270 271 270 270 271 272 273 274 277 281 281 281 282 284 285 286 287 287 287 286 287 287 287 286 285 284 283 281 280 279 278 278 277 277 276 275 274 273 272 271
267 267 267 268 268 268 268 268 268 269 271 274 279 283 285 283 283 284 286 287 287 287 287 287 287 287 286 286 284 284 282 281 280 279 278 277 276 276 275 275 274 274 273 271
265 265 265 265 265 265 265 266 267 268 272 276 280 282 287 288 289 289 289 289 288 287 287 288 288 287 287 286 285 284 283 282 281 280 279 278 277 276 275 274 274 273 272 271
262 262 263 263 263 263 264 265 266 269 273 278 281 281 285 288 290 291 291 291 290 290 290 290 289 288 287 287 286 285 285 284 283 282 281 280 278 277 276 275 274 273 272 271
260 260 260 261 261 262 263 264 266 271 275 277 280 282 287 289 290 291 290 290 290 291 290 290 289 288 288 287 287 286 286 285 284 283 282 281 280 279 278 277 276 275 274 273
258 259 259 260 260 262 264 266 268 270 274 278 282 286 289 291 290 289 290 291 291 290 289 288 287 286 286 285 285 285 284 284 283 283 283 283 282 282 281 280 279 279 277 276
258 259 260 261 262 263 265 267 267 269 274 278 282 286 287 286 286 288 289 289 288 287 286 285 284 284 284 284 284 284 283 283 284 284 284 284 284 284 284 284 283 283 282 281
259 260 263 263 264 265 265 266 268 270 273 276 281 283 284 286 288 288 288 287 285 284 283 282 282 283 283 283 283 283 283 284 284 284 284 285 285 285 286 286 285 285 285 284
260 261 263 265 265 265 265 268 269 270 273 275 277 281 284 286 287 287 286 285 284 283 282 283 283 283 283 283 283 283 284 284 284 285 286 286 287 287 288 288 287 287 287 286
260 261 264 266 267 268 268 269 268 269 270 272 276 283 286 286 285 285 284 284 283 283 282 283 283 284 283 283 284 284 285 286 287 288 288 289 289 289 289 289 289 289 288 287
260 261 264 266 268 268 268 268 268 269 271 274 278 283 284 285 285 285 284 283 282 283 283 283 283 284 284 285 286 286 287 288 289 290 290 291 291 291 291 291 290 289 289 288
260 261 263 264 264 265 268 270 271 271 275 278 282 284 286 284 283 281 281 282 282 283 283 283 284 284 285 286 287 288 289 289 290 291 291 291 291 291 291 291 291 290 290 290
259 260 262 263 264 264 266 269 271 274 278 281 282 284 285 281 280 281 282 282 283 283 283 283 284 285 286 287 288 289 289 290 290 291 291 291 292 292 292 292 292 292 292 291
257 260 262 263 265 266 267 272 275 277 279 281 282 284 281 279 280 280 281 282 283 283 283 284 285 286 287 287 288 289 289 290 291 291 292 293 293 293 293 293 293 292 292 291
256 259 262 264 266 266 273 274 275 278 280 281 281 281 280 279 280 281 282 282 283 283 284 285 286 286 287 288 288 289 290 291 292 293 293 294 294 294 294 293 293 292 292 293
258 260 263 265 268 270 273 277 280 280 279 279 279 279 279 279 280 281 282 282 283 284 285 285 286 287 288 289 290 291 292 293 293 293 293 294 294 294 293 293 293 293 294 294
260 262 264 267 269 272 277 278 279 279 278 279 278 277 278 279 281 282 282 283 285 285 286 287 288 289 290 291 291 292 292 293 293 293 293 293 293 293 294 294 294 294 295 296
262 264 267 269 272 275 278 280 279 277 278 277 276 277 278 279 281 282 283 284 285 287 288 289 290 290 291 291 292 292 292 292 292 292 292 292 292 293 293 294 294 295 296 297
264 266 268 272 274 279 280 278 276 276 276 277 278 278 279 281 282 283 284 286 287 288 289 290 291 291 291 291 291 291 291 290 290 291 291 292 292 293 294 294 295 296 298 299
266 269 272 274 277 279 278 276 275 274 275 276 278 279 281 282 283 284 286 287 289 290 291 291 291 291 291 291 290 290 290 289 290 290 291 292 292 293 294 295 296 298 299 300
268 272 274 277 279 277 275 273 273 273 275 277 279 281 283 284 285 286 288 289 290 291 291 291 291 291 291 290 289 289 289 290 290 291 291 292 293 294 295 296 297 299 300 301
272 275 277 278 276 272 271 271 272 274 277 280 281 283 284 286 287 288 289 290 291 291 291 291 291 291 290 290 290 290 290 290 291 291 291 292 293 294 295 297 298 299 300 301
278 279 276 272 269 268 269 272 275 277 280 281 282 284 285 287 288 289 290 292 292 292 291 290 290 290 290 290 291 291 291 291 291 291 292 292 293 294 295 297 298 300 300 301